[[{"header":{"parameterUnit":"m.s-1","parameterCategory":1,"la1":30.2991,"la2":30.254,"lo1":-89.0895,"lo2":-89.0444,"dy":0.0017,"dx":0.0017,"nx":28,"ny":28,"refTime":"2023-11-04T09:00:00:Z","depth":0,"parameterNumber":2,"parameterNumberName":"U-component_of_WINDS"},"data":[0,0,0,0,0,0,0,0,0,0,0,0,0,0,0,0,0,0,0,0,0,0,0,0,0,0,0,0,0,0,0,0,0,0,0,0,0,0,0,0,0,0,0,0,0,0,0,0,0,0,0,0,0,0,0,0,0,0,-0.1709,-0.1709,0,-0.1731,-0.1732,-0.1732,-0.1694,-0.1692,-0.1691,-0.169,-0.1713,-0.1715,-0.1717,0,0,0,0,0,0,0,0,0,0,0,0,0,-0.1632,-0.1634,-0.1709,-0.1709,-0.171,-0.1731,-0.1732,-0.1732,-0.1694,-0.1692,-0.1691,-0.1689,-0.1713,-0.1715,-0.1717,0,0,0,0,0,0,0,0,0,0,0,0,0,-0.1661,-0.1635,-0.1709,-0.1693,-0.1692,-0.1731,-0.1732,-0.1732,-0.1694,-0.1692,-0.169,-0.1689,-0.1712,-0.1715,-0.1717,-0.1773,0,0,-0.1726,-0.1727,0,0,0,0,0,0,0,0,-0.166,-0.1664,-0.1695,-0.1694,-0.1693,-0.1708,-0.1713,-0.1746,-0.1695,-0.1693,-0.169,-0.1688,-0.1713,-0.1716,-0.1724,-0.1774,-0.1775,-0.1726,-0.1728,-0.1729,-0.173,0,0,0,0,0,0,0,-0.1658,-0.1663,-0.1718,-0.1696,-0.1694,-0.1685,-0.1687,-0.1719,-0.1714,-0.1693,-0.1691,-0.1694,-0.1712,-0.1722,-0.1724,-0.1776,-0.1726,-0.1728,-0.173,-0.1731,-0.1872,-0.1874,0,0,0,0,0,0,-0.1658,-0.1662,-0.1717,-0.1718,-0.1671,-0.1688,-0.169,-0.1705,-0.1713,-0.1713,-0.1695,-0.1692,-0.1718,-0.1721,-0.1725,-0.1791,-0.1729,-0.1731,-0.1733,-0.187,-0.1873,-0.1875,0,0,0,0,0,0,-0.1656,-0.1663,-0.1716,-0.1689,-0.1695,-0.1691,-0.1708,-0.1707,-0.1716,-0.1715,-0.1714,-0.1706,-0.1716,-0.1721,-0.1761,-0.1792,-0.1733,-0.1735,-0.1868,-0.1871,-0.1874,-0.1925,0,0,0,0,0,0,-0.1654,-0.1663,-0.1684,-0.169,-0.1697,-0.1753,-0.171,-0.1708,-0.1721,-0.1716,-0.1725,-0.1724,-0.1715,-0.1758,-0.1764,-0.1794,-0.1737,-0.1865,-0.1869,-0.1873,-0.192,-0.1929,-0.1937,0,0,0,0,0,-0.1652,-0.1698,-0.1686,-0.1693,-0.1724,-0.1755,-0.1758,-0.1747,-0.1723,-0.1745,-0.1744,-0.1724,-0.1787,-0.1762,-0.1769,-0.1801,-0.1863,-0.1868,-0.1873,-0.1917,-0.1927,-0.1936,0,0,0,0,0,0,-0.1696,-0.1698,-0.1685,-0.1734,-0.1745,-0.1748,-0.1775,-0.1759,-0.1776,-0.1771,-0.1756,-0.1758,-0.1802,-0.1805,-0.1777,-0.1855,-0.1821,-0.1827,-0.1852,-0.1862,-0.187,-0.187,-0.174,0,0,0,0,0,-0.1712,-0.1737,-0.1737,-0.178,-0.1786,-0.178,-0.1793,-0.1783,-0.1793,-0.1797,-0.1799,-0.181,-0.1832,-0.1847,-0.1867,-0.1919,-0.1921,-0.1944,-0.1953,-0.1959,-0.1966,-0.1994,-0.2005,-0.1891,-0.1891,-0.189,0,0,-0.1744,-0.1748,-0.1765,-0.179,-0.1796,-0.1823,-0.1784,-0.1813,-0.1832,-0.1801,-0.184,-0.1842,-0.1852,-0.1899,-0.192,-0.1903,-0.1997,-0.1965,-0.1971,-0.1974,-0.2,-0.2011,-0.2021,-0.1894,-0.1893,-0.1893,0,0,-0.1818,-0.1823,-0.186,-0.1867,-0.1877,-0.1872,-0.1881,-0.1887,-0.1887,-0.1925,-0.1902,-0.1924,-0.1963,-0.1971,-0.1981,-0.2055,-0.2037,-0.2061,-0.2105,-0.2133,-0.2142,-0.215,-0.2178,-0.2188,-0.2067,-0.2067,-0.2068,0,-0.1857,-0.1896,-0.1881,-0.1912,-0.1923,-0.1895,-0.1933,-0.194,-0.1957,-0.1965,-0.1946,-0.1993,-0.1998,-0.2046,-0.2064,-0.2072,-0.2082,-0.2062,-0.2142,-0.215,-0.2157,-0.2183,-0.2194,-0.207,-0.207,-0.207,-0.207,0,-0.1944,-0.1971,-0.1999,-0.2016,-0.203,-0.2064,-0.2054,-0.207,-0.2058,-0.2056,-0.2094,-0.2099,-0.212,-0.213,-0.2119,-0.2177,-0.2166,-0.2144,-0.2111,-0.2171,-0.2196,-0.2205,-0.2075,-0.2074,-0.2073,-0.2072,0,0,-0.2049,-0.2055,-0.2066,-0.2073,-0.2082,-0.2102,-0.2134,-0.2154,-0.2169,-0.218,-0.2207,-0.2239,-0.2219,-0.2229,-0.2218,-0.2243,-0.2302,-0.2218,-0.2218,-0.2235,-0.2367,-0.2385,-0.2397,-0.2289,-0.2291,-0.2293,-0.2367,0,-0.2123,-0.2179,-0.2165,-0.2221,-0.2246,-0.2218,-0.2246,-0.2254,-0.2252,-0.2272,-0.2269,-0.2293,-0.2263,-0.227,-0.2292,-0.229,-0.2329,-0.2284,-0.2315,-0.2317,-0.2316,-0.241,-0.2429,-0.2499,-0.2376,-0.2378,-0.2379,0,-0.2217,-0.2232,-0.229,-0.2294,-0.2304,-0.2329,-0.2346,-0.2366,-0.2374,-0.237,-0.2381,-0.2365,-0.2397,-0.236,-0.2404,-0.2374,-0.2385,-0.2386,-0.2388,-0.2393,-0.2353,-0.2418,-0.2521,-0.2532,-0.2394,-0.2392,-0.2391,0,-0.229,-0.2324,-0.2363,-0.237,-0.2375,-0.2393,-0.2396,-0.2402,-0.2415,-0.2429,-0.2437,-0.2455,-0.2465,-0.2479,-0.2468,-0.2442,-0.2513,-0.2476,-0.2512,-0.2513,-0.2531,-0.253,-0.2639,-0.2534,-0.2534,-0.2534,-0.2534,0,-0.2375,-0.2412,-0.2396,-0.242,-0.246,-0.2444,-0.2484,-0.2484,-0.2489,-0.2513,-0.2489,-0.2512,-0.2495,-0.2516,-0.2507,-0.2545,-0.2549,-0.2548,-0.2545,-0.2551,-0.2552,-0.256,-0.2556,-0.2537,-0.2536,-0.2535,-0.2535,0,-0.2464,-0.2455,-0.2496,-0.2496,-0.2497,-0.2527,-0.2528,-0.255,-0.2545,-0.2575,-0.2581,-0.2573,-0.2597,-0.2586,-0.2611,-0.2605,-0.2654,-0.2644,-0.2652,-0.265,-0.2687,-0.2685,-0.2807,-0.2823,-0.2706,-0.2707,-0.2708,0,-0.252,-0.2548,-0.2552,-0.2566,-0.257,-0.2593,-0.2606,-0.2589,-0.2603,-0.2614,-0.2635,-0.2656,-0.2673,-0.2711,-0.2708,-0.2726,-0.2718,-0.2759,-0.2721,-0.2726,-0.2721,-0.272,-0.2724,-0.2768,-0.2769,-0.2771,-0.2771,0,-0.2622,-0.2615,-0.2634,-0.2652,-0.2667,-0.268,-0.269,-0.2703,-0.2687,-0.2704,-0.2728,-0.274,-0.2765,-0.2787,-0.2802,-0.2805,-0.2786,-0.2783,-0.2793,-0.28,-0.2805,-0.2805,-0.2675,-0.2781,-0.278,-0.2779,-0.2779,-0.2779,-0.2698,-0.2721,-0.2727,-0.2749,-0.2755,-0.2765,-0.2786,-0.2783,-0.2802,-0.2822,-0.281,-0.2838,-0.2844,-0.2863,-0.2868,-0.289,-0.2874,-0.2887,-0.2891,-0.2895,-0.2901,-0.2799,-0.2892,-0.2892,-0.2892,-0.2891,-0.2891,0,-0.28,-0.2802,-0.2822,-0.2837,-0.2854,-0.2833,-0.2843,-0.2859,-0.2884,-0.2891,-0.2907,-0.2934,-0.2954,-0.2952,-0.297,-0.2988,-0.298,-0.2993,-0.2993,-0.2994,-0.2914,-0.2904,-0.3,-0.3,-0.3,-0.3,-0.3,-0.3,-0.2855,-0.2894,-0.2888,-0.2929,-0.293,-0.2958,-0.2966,-0.2975,-0.298,-0.3011,-0.3028,-0.3026,-0.3029,-0.3047,-0.3065,-0.3063,-0.3072,-0.309,-0.3085,-0.3011,-0.3,-0.299,-0.2981,-0.3091,-0.3091,-0.3164,-0.3165,-0.3166]},{"header":{"parameterUnit":"m.s-1","parameterCategory":1,"la1":30.2991,"la2":30.254,"lo1":-89.0895,"lo2":-89.0444,"dy":0.0017,"dx":0.0017,"nx":28,"ny":28,"refTime":"2023-11-04T09:00:00:Z","depth":0,"parameterNumber":3,"parameterNumberName":"V-component_of_WINDS"},"data":[0,0,0,0,0,0,0,0,0,0,0,0,0,0,0,0,0,0,0,0,0,0,0,0,0,0,0,0,0,0,0,0,0,0,0,0,0,0,0,0,0,0,0,0,0,0,0,0,0,0,0,0,0,0,0,0,0,0,-2.4394,-2.4394,0,-2.4451,-2.4452,-2.4452,-2.4482,-2.4482,-2.4482,-2.4482,-2.4538,-2.4539,-2.4541,0,0,0,0,0,0,0,0,0,0,0,0,0,-2.4307,-2.4308,-2.4394,-2.4394,-2.4395,-2.4451,-2.4452,-2.4452,-2.4482,-2.4482,-2.4482,-2.4482,-2.4537,-2.4539,-2.4541,0,0,0,0,0,0,0,0,0,0,0,0,0,-2.4352,-2.4309,-2.4394,-2.4417,-2.4419,-2.4451,-2.4452,-2.4453,-2.4482,-2.4482,-2.4482,-2.4482,-2.4537,-2.4539,-2.4541,-2.4553,0,0,-2.4548,-2.4549,0,0,0,0,0,0,0,0,-2.4349,-2.4355,-2.4413,-2.4415,-2.4418,-2.4459,-2.4441,-2.4486,-2.4482,-2.4458,-2.4482,-2.4482,-2.4512,-2.4516,-2.4526,-2.4555,-2.4558,-2.4548,-2.4549,-2.455,-2.4551,0,0,0,0,0,0,0,-2.4346,-2.4353,-2.4416,-2.4413,-2.4417,-2.4423,-2.443,-2.445,-2.4484,-2.446,-2.4463,-2.4469,-2.4513,-2.4524,-2.4528,-2.4559,-2.4548,-2.455,-2.4551,-2.4552,-2.4599,-2.4599,0,0,0,0,0,0,-2.434,-2.435,-2.4414,-2.4418,-2.4383,-2.4424,-2.4432,-2.4446,-2.4483,-2.4489,-2.4469,-2.447,-2.452,-2.4525,-2.453,-2.4545,-2.455,-2.4552,-2.4553,-2.4599,-2.4599,-2.4599,0,0,0,0,0,0,-2.4338,-2.4345,-2.4412,-2.4385,-2.4394,-2.4426,-2.4442,-2.4447,-2.4458,-2.449,-2.4496,-2.4474,-2.4521,-2.4527,-2.4547,-2.4548,-2.4553,-2.4555,-2.4599,-2.4599,-2.4599,-2.4577,0,0,0,0,0,0,-2.4335,-2.4344,-2.435,-2.4385,-2.4395,-2.4429,-2.4442,-2.4448,-2.4462,-2.4464,-2.4497,-2.4502,-2.4521,-2.4543,-2.4549,-2.4551,-2.4557,-2.4599,-2.4599,-2.4599,-2.4577,-2.4576,-2.4574,0,0,0,0,0,-2.4332,-2.4342,-2.435,-2.4358,-2.4403,-2.4429,-2.4435,-2.4458,-2.4462,-2.4468,-2.4488,-2.4501,-2.4547,-2.4545,-2.4552,-2.4554,-2.4599,-2.4599,-2.4599,-2.4578,-2.4576,-2.4574,0,0,0,0,0,0,-2.4306,-2.4347,-2.4357,-2.4378,-2.44,-2.4434,-2.4442,-2.4455,-2.4476,-2.4477,-2.4503,-2.451,-2.4527,-2.4543,-2.454,-2.4567,-2.4574,-2.4575,-2.4556,-2.4554,-2.4553,-2.4549,-2.4558,0,0,0,0,0,-2.4303,-2.4322,-2.4356,-2.4371,-2.4382,-2.441,-2.4422,-2.4437,-2.4461,-2.447,-2.4492,-2.4513,-2.4532,-2.4544,-2.4563,-2.458,-2.4586,-2.4584,-2.4583,-2.4581,-2.4582,-2.459,-2.4589,-2.4598,-2.4598,-2.4598,0,0,-2.4297,-2.4321,-2.4331,-2.4366,-2.4385,-2.4403,-2.4417,-2.4436,-2.4449,-2.4473,-2.4493,-2.4509,-2.4535,-2.4552,-2.4561,-2.4566,-2.4581,-2.4581,-2.458,-2.4581,-2.459,-2.4589,-2.4588,-2.4598,-2.4598,-2.4598,0,0,-2.4294,-2.4315,-2.4329,-2.4347,-2.4376,-2.4394,-2.4397,-2.4429,-2.4441,-2.4462,-2.448,-2.4495,-2.4528,-2.4545,-2.4558,-2.4559,-2.4571,-2.4564,-2.4557,-2.4564,-2.4564,-2.4563,-2.4563,-2.4562,-2.4565,-2.4565,-2.4565,0,-2.4282,-2.4311,-2.4335,-2.4352,-2.4366,-2.4389,-2.4403,-2.4419,-2.4452,-2.446,-2.4465,-2.4506,-2.4524,-2.4546,-2.4546,-2.4556,-2.4559,-2.4561,-2.4562,-2.4562,-2.4562,-2.4562,-2.4561,-2.4564,-2.4564,-2.4564,-2.4564,0,-2.4294,-2.4313,-2.4321,-2.4353,-2.4368,-2.4383,-2.4408,-2.442,-2.4434,-2.4451,-2.4471,-2.4494,-2.4518,-2.4524,-2.4537,-2.4547,-2.4549,-2.4557,-2.4565,-2.4559,-2.456,-2.456,-2.4562,-2.4563,-2.4563,-2.4563,0,0,-2.4278,-2.4322,-2.4324,-2.4338,-2.437,-2.4385,-2.44,-2.4424,-2.4433,-2.4454,-2.4467,-2.4493,-2.4501,-2.4516,-2.4531,-2.4538,-2.4536,-2.4545,-2.4546,-2.4542,-2.4546,-2.4539,-2.4539,-2.4544,-2.4544,-2.4544,-2.4544,0,-2.4279,-2.431,-2.4331,-2.4352,-2.4369,-2.439,-2.4403,-2.4423,-2.4439,-2.4455,-2.4472,-2.449,-2.45,-2.4508,-2.4516,-2.4535,-2.4537,-2.4535,-2.4555,-2.4556,-2.4548,-2.4539,-2.4533,-2.4531,-2.4544,-2.4544,-2.4544,0,-2.4286,-2.4306,-2.4329,-2.4358,-2.4366,-2.4378,-2.44,-2.4416,-2.4438,-2.4449,-2.4464,-2.448,-2.4495,-2.4502,-2.4523,-2.4521,-2.453,-2.454,-2.4541,-2.4543,-2.455,-2.4541,-2.4531,-2.4531,-2.4545,-2.4545,-2.4545,0,-2.4271,-2.4304,-2.4322,-2.4333,-2.4367,-2.4375,-2.4389,-2.4412,-2.4424,-2.4443,-2.4451,-2.4472,-2.4483,-2.4498,-2.4518,-2.4521,-2.4536,-2.4545,-2.4545,-2.4545,-2.4548,-2.4547,-2.4539,-2.4554,-2.4554,-2.4554,-2.4554,0,-2.427,-2.4283,-2.4316,-2.4327,-2.4341,-2.4364,-2.4378,-2.4394,-2.4413,-2.4427,-2.4445,-2.4457,-2.4483,-2.4497,-2.4513,-2.4527,-2.4532,-2.4541,-2.4545,-2.4539,-2.4538,-2.4545,-2.4546,-2.4554,-2.4554,-2.4554,-2.4554,0,-2.4257,-2.4279,-2.4299,-2.433,-2.4337,-2.4347,-2.4372,-2.4382,-2.4399,-2.4415,-2.442,-2.4446,-2.4464,-2.4485,-2.451,-2.452,-2.4533,-2.4539,-2.4525,-2.4527,-2.4527,-2.4526,-2.4522,-2.4523,-2.4538,-2.4538,-2.4538,0,-2.4255,-2.4265,-2.4296,-2.4307,-2.4321,-2.4337,-2.435,-2.4372,-2.4384,-2.441,-2.4417,-2.4436,-2.4453,-2.448,-2.45,-2.4518,-2.4525,-2.4522,-2.4528,-2.4521,-2.4524,-2.4523,-2.4524,-2.4521,-2.452,-2.452,-2.452,0,-2.4249,-2.4259,-2.4277,-2.4298,-2.4312,-2.433,-2.4348,-2.4355,-2.4381,-2.4393,-2.4412,-2.4425,-2.445,-2.4468,-2.4489,-2.4502,-2.4515,-2.4518,-2.4519,-2.4513,-2.4505,-2.4508,-2.4521,-2.4518,-2.4518,-2.4518,-2.4518,-2.4519,-2.4241,-2.4251,-2.4274,-2.4292,-2.4308,-2.4324,-2.4335,-2.4353,-2.4369,-2.4391,-2.4403,-2.4421,-2.4441,-2.447,-2.4483,-2.4497,-2.4501,-2.4503,-2.4503,-2.4503,-2.4501,-2.4503,-2.4501,-2.4501,-2.4501,-2.4501,-2.4501,0,-2.4236,-2.4251,-2.4268,-2.4292,-2.4306,-2.4317,-2.4337,-2.4348,-2.4364,-2.4382,-2.4398,-2.4418,-2.4436,-2.4457,-2.4475,-2.4482,-2.4488,-2.4486,-2.4485,-2.4488,-2.4496,-2.4493,-2.4481,-2.4481,-2.4481,-2.4481,-2.4481,-2.4481,-2.4235,-2.4251,-2.4263,-2.4287,-2.4302,-2.432,-2.433,-2.4345,-2.4359,-2.4381,-2.4396,-2.441,-2.4428,-2.4448,-2.4464,-2.447,-2.4475,-2.4471,-2.4478,-2.4486,-2.4488,-2.4489,-2.4487,-2.4473,-2.4473,-2.4469,-2.4469,-2.4469]}]]